Location: Staunton
(38.1490°N, 79.0720°W)
Time: 03:26:59
(UTC-04:00)

ISS - Pass Details

Date: 20 September 2017
Orbit: 401 x 407 km, 51.6° (Epoch: 23 September)

Event Time Altitude Azimuth Distance (km) Brightness Sun altitude
Exits shadow 05:59:42 19° 294° (WNW) 1,038 -2.2 -13.1°
Maximum altitude 06:01:48 51° 224° (SW) 517 -3.7 -12.7°
Drops below altitude 10° 06:04:59 10° 147° (SSE) 1,457 -0.7 -12.1°
Sets 06:07:05 0° 142° (SE) 2,313 0.4 -11.7°
